Year,Month,Day,Hour,Minute,Value (Times are PST for temperature in C)
2008,10,09,00,00,4.40
2008,10,09,00,02,4.40
2008,10,09,00,04,4.30
2008,10,09,00,05,4.30
2008,10,09,00,06,4.30
2008,10,09,00,07,4.30
2008,10,09,00,09,4.30
2008,10,09,00,10,4.30
2008,10,09,00,11,4.30
2008,10,09,00,12,4.30
2008,10,09,00,13,4.30
2008,10,09,00,14,4.30
2008,10,09,00,16,4.20
2008,10,09,00,17,4.20
2008,10,09,00,18,4.20
2008,10,09,00,19,4.20
2008,10,09,00,20,4.20
2008,10,09,00,21,4.20
2008,10,09,00,22,4.20
2008,10,09,00,23,4.20
2008,10,09,00,25,4.10
2008,10,09,00,26,4.10
2008,10,09,00,27,4.10
2008,10,09,00,28,4.10
2008,10,09,00,29,4.10
2008,10,09,00,30,4.10
2008,10,09,00,32,4.10
2008,10,09,00,34,4.10
2008,10,09,00,35,4.10
2008,10,09,00,36,4.10
2008,10,09,00,37,4.10
2008,10,09,00,38,4.10
2008,10,09,00,39,4.10
2008,10,09,00,40,4.10
2008,10,09,00,41,4.10
2008,10,09,00,42,4.10
2008,10,09,00,43,4.00
2008,10,09,00,44,4.00
2008,10,09,00,45,4.00
2008,10,09,00,46,4.10
2008,10,09,00,47,4.10
2008,10,09,00,48,4.10
2008,10,09,00,49,4.10
2008,10,09,00,50,4.10
2008,10,09,00,51,4.10
2008,10,09,00,52,4.10
2008,10,09,00,53,4.10
2008,10,09,00,54,4.10
2008,10,09,00,55,4.10
2008,10,09,00,56,4.00
2008,10,09,00,58,4.10
2008,10,09,00,59,4.00
2008,10,09,01,01,4.00
2008,10,09,01,02,4.00
2008,10,09,01,03,4.00
2008,10,09,01,04,4.00
2008,10,09,01,05,4.00
2008,10,09,01,06,4.00
2008,10,09,01,07,4.00
2008,10,09,01,08,4.00
2008,10,09,01,10,3.90
2008,10,09,01,11,3.90
2008,10,09,01,12,3.90
2008,10,09,01,13,3.90
2008,10,09,01,14,3.90
2008,10,09,01,15,3.90
2008,10,09,01,16,3.90
2008,10,09,01,17,3.90
2008,10,09,01,18,3.90
2008,10,09,01,19,3.90
2008,10,09,01,21,3.90
2008,10,09,01,22,3.90
2008,10,09,01,23,3.90
2008,10,09,01,24,3.90
2008,10,09,01,25,3.90
2008,10,09,01,26,3.90
2008,10,09,01,27,3.90
2008,10,09,01,28,3.80
2008,10,09,01,29,3.80
2008,10,09,01,30,3.80
2008,10,09,01,31,3.80
2008,10,09,01,33,3.80
2008,10,09,01,34,3.80
2008,10,09,01,35,3.80
2008,10,09,01,36,3.80
2008,10,09,01,37,3.80
2008,10,09,01,38,3.80
2008,10,09,01,39,3.80
2008,10,09,01,40,3.80
2008,10,09,01,41,3.80
2008,10,09,01,42,3.80
2008,10,09,01,43,3.80
2008,10,09,01,44,3.80
2008,10,09,01,45,3.80
2008,10,09,01,47,3.80
2008,10,09,01,48,3.80
2008,10,09,01,49,3.80
2008,10,09,01,50,3.80
2008,10,09,01,51,3.80
2008,10,09,01,52,3.80
2008,10,09,01,53,3.80
2008,10,09,01,54,3.80
2008,10,09,01,55,3.80
2008,10,09,01,56,3.80
2008,10,09,01,57,3.80
2008,10,09,01,58,3.80
2008,10,09,01,59,3.80
2008,10,09,02,00,3.80
2008,10,09,02,01,3.90
2008,10,09,02,02,3.90
2008,10,09,02,03,3.90
2008,10,09,02,04,3.90
2008,10,09,02,05,3.90
2008,10,09,02,06,3.90
2008,10,09,02,07,3.90
2008,10,09,02,08,3.90
2008,10,09,02,09,3.90
2008,10,09,02,10,3.90
2008,10,09,02,11,4.00
2008,10,09,02,12,3.90
2008,10,09,02,13,4.00
2008,10,09,02,14,4.00
2008,10,09,02,15,4.00
2008,10,09,02,16,4.00
2008,10,09,02,17,4.00
2008,10,09,02,18,4.00
2008,10,09,02,19,4.00
2008,10,09,02,20,4.00
2008,10,09,02,21,4.00
2008,10,09,02,22,4.00
2008,10,09,02,23,4.00
2008,10,09,02,24,4.00
2008,10,09,02,25,4.00
2008,10,09,02,26,4.00
2008,10,09,02,28,4.10
2008,10,09,02,29,4.10
2008,10,09,02,30,4.10
2008,10,09,02,31,4.10
2008,10,09,02,32,4.10
2008,10,09,02,33,4.10
2008,10,09,02,34,4.10
2008,10,09,02,35,4.10
2008,10,09,02,36,4.10
2008,10,09,02,37,4.10
2008,10,09,02,38,4.10
2008,10,09,02,39,4.20
2008,10,09,02,40,4.20
2008,10,09,02,41,4.20
2008,10,09,02,42,4.20
2008,10,09,02,43,4.20
2008,10,09,02,44,4.20
2008,10,09,02,45,4.20
2008,10,09,02,46,4.20
2008,10,09,02,47,4.30
2008,10,09,02,48,4.30
2008,10,09,02,49,4.30
2008,10,09,02,50,4.30
2008,10,09,02,51,4.30
2008,10,09,02,52,4.30
2008,10,09,02,53,4.30
2008,10,09,02,54,4.30
2008,10,09,02,55,4.40
2008,10,09,02,56,4.40
2008,10,09,02,57,4.40
2008,10,09,02,58,4.40
2008,10,09,02,59,4.40
2008,10,09,03,00,4.40
2008,10,09,03,01,4.40
2008,10,09,03,02,4.40
2008,10,09,03,03,4.40
2008,10,09,03,04,4.40
2008,10,09,03,05,4.50
2008,10,09,03,06,4.50
2008,10,09,03,07,4.50
2008,10,09,03,08,4.50
2008,10,09,03,09,4.50
2008,10,09,03,10,4.50
2008,10,09,03,11,4.60
2008,10,09,03,12,4.60
2008,10,09,03,13,4.60
2008,10,09,03,14,4.60
2008,10,09,03,15,4.60
2008,10,09,03,16,4.60
2008,10,09,03,17,4.60
2008,10,09,03,18,4.60
2008,10,09,03,19,4.60
2008,10,09,03,20,4.60
2008,10,09,03,21,4.60
2008,10,09,03,22,4.60
2008,10,09,03,23,4.60
2008,10,09,03,24,4.70
2008,10,09,03,25,4.70
2008,10,09,03,26,4.70
2008,10,09,03,27,4.70
2008,10,09,03,28,4.70
2008,10,09,03,29,4.70
2008,10,09,03,30,4.70
2008,10,09,03,31,4.70
2008,10,09,03,32,4.70
2008,10,09,03,33,4.70
2008,10,09,03,34,4.70
2008,10,09,03,35,4.70
2008,10,09,03,36,4.80
2008,10,09,03,37,4.80
2008,10,09,03,38,4.80
2008,10,09,03,39,4.80
2008,10,09,03,40,4.80
2008,10,09,03,41,4.80
2008,10,09,03,42,4.80
2008,10,09,03,43,4.80
2008,10,09,03,44,4.80
2008,10,09,03,45,4.80
2008,10,09,03,46,4.80
2008,10,09,03,47,4.80
2008,10,09,03,48,4.80
2008,10,09,03,49,4.80
2008,10,09,03,50,4.80
2008,10,09,03,51,4.80
2008,10,09,03,52,4.80
2008,10,09,03,53,4.80
2008,10,09,03,54,4.80
2008,10,09,03,56,4.80
2008,10,09,03,57,4.80
2008,10,09,03,58,4.80
2008,10,09,03,59,4.80
2008,10,09,04,00,4.80
2008,10,09,04,01,4.90
2008,10,09,04,02,4.80
2008,10,09,04,03,4.80
2008,10,09,04,04,4.80
2008,10,09,04,05,4.80
2008,10,09,04,06,4.80
2008,10,09,04,07,4.80
2008,10,09,04,08,4.80
2008,10,09,04,09,4.80
2008,10,09,04,10,4.80
2008,10,09,04,11,4.80
2008,10,09,04,12,4.90
2008,10,09,04,13,4.90
2008,10,09,04,14,4.90
2008,10,09,04,15,4.90
2008,10,09,04,16,4.90
2008,10,09,04,17,4.90
2008,10,09,04,18,4.90
2008,10,09,04,19,4.90
2008,10,09,04,20,4.90
2008,10,09,04,21,4.90
2008,10,09,04,22,4.90
2008,10,09,04,23,5.00
2008,10,09,04,24,5.00
2008,10,09,04,25,5.00
2008,10,09,04,26,5.00
2008,10,09,04,27,5.10
2008,10,09,04,28,5.10
2008,10,09,04,29,5.10
2008,10,09,04,30,5.10
2008,10,09,04,31,5.10
2008,10,09,04,32,5.10
2008,10,09,04,33,5.10
2008,10,09,04,34,5.10
2008,10,09,04,35,5.10
2008,10,09,04,36,5.10
2008,10,09,04,37,5.10
2008,10,09,04,38,5.10
2008,10,09,04,39,5.10
2008,10,09,04,40,5.20
2008,10,09,04,41,5.20
2008,10,09,04,42,5.20
2008,10,09,04,43,5.20
2008,10,09,04,44,5.20
2008,10,09,04,45,5.20
2008,10,09,04,46,5.20
2008,10,09,04,47,5.20
2008,10,09,04,48,5.20
2008,10,09,04,49,5.20
2008,10,09,04,50,5.20
2008,10,09,04,51,5.20
2008,10,09,04,52,5.20
2008,10,09,04,53,5.20
2008,10,09,04,54,5.20
2008,10,09,04,55,5.20
2008,10,09,04,56,5.20
2008,10,09,04,57,5.20
2008,10,09,04,58,5.20
2008,10,09,04,59,5.20
2008,10,09,05,00,5.20
2008,10,09,05,01,5.20
2008,10,09,05,02,5.20
2008,10,09,05,03,5.20
2008,10,09,05,04,5.20
2008,10,09,05,05,5.20
2008,10,09,05,06,5.20
2008,10,09,05,07,5.20
2008,10,09,05,08,5.20
2008,10,09,05,09,5.20
2008,10,09,05,10,5.20
2008,10,09,05,11,5.20
2008,10,09,05,12,5.20
2008,10,09,05,13,5.20
2008,10,09,05,14,5.20
2008,10,09,05,15,5.20
2008,10,09,05,16,5.20
2008,10,09,05,17,5.20
2008,10,09,05,18,5.20
2008,10,09,05,19,5.20
2008,10,09,05,20,5.20
2008,10,09,05,21,5.20
2008,10,09,05,22,5.20
2008,10,09,05,23,5.20
2008,10,09,05,24,5.20
2008,10,09,05,25,5.20
2008,10,09,05,26,5.20
2008,10,09,05,27,5.20
2008,10,09,05,28,5.20
2008,10,09,05,29,5.20
2008,10,09,05,30,5.20
2008,10,09,05,31,5.20
2008,10,09,05,32,5.20
2008,10,09,05,33,5.20
2008,10,09,05,34,5.20
2008,10,09,05,35,5.20
2008,10,09,05,36,5.20
2008,10,09,05,37,5.20
2008,10,09,05,38,5.20
2008,10,09,05,39,5.20
2008,10,09,05,40,5.20
2008,10,09,05,41,5.20
2008,10,09,05,42,5.20
2008,10,09,05,43,5.20
2008,10,09,05,44,5.20
2008,10,09,05,45,5.20
2008,10,09,05,46,5.20
2008,10,09,05,47,5.20
2008,10,09,05,48,5.30
2008,10,09,05,49,5.20
2008,10,09,05,50,5.20
2008,10,09,05,51,5.30
2008,10,09,05,52,5.20
2008,10,09,05,53,5.30
2008,10,09,05,54,5.30
2008,10,09,05,55,5.30
2008,10,09,05,56,5.30
2008,10,09,05,57,5.30
2008,10,09,05,58,5.30
2008,10,09,05,59,5.30
2008,10,09,06,00,5.30
2008,10,09,06,01,5.30
2008,10,09,06,02,5.30
2008,10,09,06,03,5.30
2008,10,09,06,04,5.30
2008,10,09,06,05,5.30
2008,10,09,06,06,5.30
2008,10,09,06,07,5.30
2008,10,09,06,08,5.30
2008,10,09,06,09,5.30
2008,10,09,06,10,5.30
2008,10,09,06,11,5.30
2008,10,09,06,12,5.30
2008,10,09,06,13,5.30
2008,10,09,06,14,5.30
2008,10,09,06,15,5.30
2008,10,09,06,16,5.30
2008,10,09,06,17,5.30
2008,10,09,06,18,5.30
2008,10,09,06,19,5.30
2008,10,09,06,20,5.30
2008,10,09,06,21,5.30
2008,10,09,06,22,5.30
2008,10,09,06,23,5.30
2008,10,09,06,24,5.30
2008,10,09,06,25,5.40
2008,10,09,06,26,5.40
2008,10,09,06,27,5.40
2008,10,09,06,28,5.40
2008,10,09,06,29,5.40
2008,10,09,06,30,5.40
2008,10,09,06,31,5.40
2008,10,09,06,32,5.40
2008,10,09,06,33,5.40
2008,10,09,06,34,5.40
2008,10,09,06,35,5.30
2008,10,09,06,36,5.40
2008,10,09,06,37,5.30
2008,10,09,06,38,5.30
2008,10,09,06,39,5.30
2008,10,09,06,40,5.30
2008,10,09,06,41,5.30
2008,10,09,06,42,5.30
2008,10,09,06,43,5.30
2008,10,09,06,44,5.30
2008,10,09,06,45,5.30
2008,10,09,06,46,5.30
2008,10,09,06,47,5.30
2008,10,09,06,48,5.20
2008,10,09,06,49,5.20
2008,10,09,06,50,5.20
2008,10,09,06,51,5.20
2008,10,09,06,52,5.20
2008,10,09,06,53,5.20
2008,10,09,06,54,5.20
2008,10,09,06,55,5.20
2008,10,09,06,56,5.20
2008,10,09,06,57,5.20
2008,10,09,06,58,5.20
2008,10,09,06,59,5.20
2008,10,09,07,00,5.10
2008,10,09,07,01,5.20
2008,10,09,07,02,5.10
2008,10,09,07,03,5.10
2008,10,09,07,04,5.10
2008,10,09,07,05,5.10
2008,10,09,07,06,5.10
2008,10,09,07,07,5.10
2008,10,09,07,08,5.10
2008,10,09,07,09,5.10
2008,10,09,07,10,5.10
2008,10,09,07,11,5.10
2008,10,09,07,12,5.10
2008,10,09,07,13,5.10
2008,10,09,07,14,5.10
2008,10,09,07,15,5.10
2008,10,09,07,16,5.10
2008,10,09,07,17,5.20
2008,10,09,07,18,5.20
2008,10,09,07,19,5.20
2008,10,09,07,20,5.20
2008,10,09,07,21,5.20
2008,10,09,07,22,5.20
2008,10,09,07,23,5.20
2008,10,09,07,24,5.20
2008,10,09,07,25,5.20
2008,10,09,07,26,5.20
2008,10,09,07,27,5.20
2008,10,09,07,28,5.20
2008,10,09,07,29,5.20
2008,10,09,07,30,5.20
2008,10,09,07,31,5.20
2008,10,09,07,32,5.20
2008,10,09,07,33,5.30
2008,10,09,07,34,5.20
2008,10,09,07,35,5.30
2008,10,09,07,36,5.30
2008,10,09,07,37,5.30
2008,10,09,07,38,5.30
2008,10,09,07,39,5.30
2008,10,09,07,40,5.30
2008,10,09,07,41,5.30
2008,10,09,07,42,5.30
2008,10,09,07,43,5.30
2008,10,09,07,44,5.30
2008,10,09,07,45,5.30
2008,10,09,07,46,5.30
2008,10,09,07,47,5.30
2008,10,09,07,48,5.30
2008,10,09,07,49,5.30
2008,10,09,07,50,5.30
2008,10,09,07,51,5.30
2008,10,09,07,52,5.30
2008,10,09,07,53,5.30
2008,10,09,07,54,5.30
2008,10,09,07,55,5.40
2008,10,09,07,56,5.40
2008,10,09,07,57,5.40
2008,10,09,07,58,5.40
2008,10,09,07,59,5.40
2008,10,09,08,00,5.40
2008,10,09,08,01,5.40
2008,10,09,08,02,5.40
2008,10,09,08,03,5.40
2008,10,09,08,04,5.40
2008,10,09,08,05,5.40
2008,10,09,08,06,5.40
2008,10,09,08,07,5.40
2008,10,09,08,08,5.40
2008,10,09,08,09,5.40
2008,10,09,08,10,5.50
2008,10,09,08,11,5.40
2008,10,09,08,12,5.40
2008,10,09,08,13,5.40
2008,10,09,08,14,5.40
2008,10,09,08,15,5.50
2008,10,09,08,16,5.40
2008,10,09,08,17,5.50
2008,10,09,08,18,5.40
2008,10,09,08,19,5.50
2008,10,09,08,20,5.50
2008,10,09,08,21,5.50
2008,10,09,08,22,5.50
2008,10,09,08,23,5.50
2008,10,09,08,24,5.50
2008,10,09,08,25,5.50
2008,10,09,08,26,5.50
2008,10,09,08,27,5.60
2008,10,09,08,28,5.60
2008,10,09,08,29,5.60
2008,10,09,08,30,5.60
2008,10,09,08,31,5.60
2008,10,09,08,32,5.60
2008,10,09,08,33,5.60
2008,10,09,08,34,5.60
2008,10,09,08,35,5.60
2008,10,09,08,36,5.60
2008,10,09,08,37,5.60
2008,10,09,08,38,5.60
2008,10,09,08,39,5.60
2008,10,09,08,40,5.60
2008,10,09,08,41,5.60
2008,10,09,08,42,5.70
2008,10,09,08,43,5.60
2008,10,09,08,44,5.70
2008,10,09,08,45,5.70
2008,10,09,08,46,5.70
2008,10,09,08,47,5.70
2008,10,09,08,48,5.70
2008,10,09,08,49,5.70
2008,10,09,08,50,5.70
2008,10,09,08,51,5.70
2008,10,09,08,52,5.70
2008,10,09,08,53,5.70
2008,10,09,08,54,5.80
2008,10,09,08,55,5.80
2008,10,09,08,56,5.80
2008,10,09,08,57,5.80
2008,10,09,08,58,5.80
2008,10,09,08,59,5.80
2008,10,09,09,00,5.80
2008,10,09,09,01,5.80
2008,10,09,09,02,5.80
2008,10,09,09,03,5.80
2008,10,09,09,04,5.80
2008,10,09,09,05,5.80
2008,10,09,09,06,5.80
2008,10,09,09,07,5.80
2008,10,09,09,08,5.80
2008,10,09,09,09,5.80
2008,10,09,09,10,5.80
2008,10,09,09,11,5.90
2008,10,09,09,12,5.90
2008,10,09,09,13,5.90
2008,10,09,09,14,5.90
2008,10,09,09,15,5.90
2008,10,09,09,16,5.90
2008,10,09,09,17,5.90
2008,10,09,09,18,5.90
2008,10,09,09,19,5.90
2008,10,09,09,20,5.90
2008,10,09,09,21,5.90
2008,10,09,09,22,5.90
2008,10,09,09,23,5.90
2008,10,09,09,24,5.90
2008,10,09,09,25,5.90
2008,10,09,09,26,5.90
2008,10,09,09,27,5.90
2008,10,09,09,28,5.90
2008,10,09,09,29,5.90
2008,10,09,09,30,5.90
2008,10,09,09,31,5.90
2008,10,09,09,32,5.90
2008,10,09,09,33,5.90
2008,10,09,09,34,5.90
2008,10,09,09,35,5.90
2008,10,09,09,36,5.90
2008,10,09,09,37,5.90
2008,10,09,09,38,5.90
2008,10,09,09,39,5.90
2008,10,09,09,40,5.90
2008,10,09,09,41,5.90
2008,10,09,09,42,5.90
2008,10,09,09,43,5.90
2008,10,09,09,44,5.90
2008,10,09,09,45,5.90
2008,10,09,09,46,5.90
2008,10,09,09,47,5.90
2008,10,09,09,48,6.00
2008,10,09,09,49,6.10
2008,10,09,09,50,6.10
2008,10,09,09,51,6.10
2008,10,09,09,52,6.10
2008,10,09,09,53,6.10
2008,10,09,09,54,6.10
2008,10,09,09,55,6.20
2008,10,09,09,56,6.20
2008,10,09,09,57,6.20
2008,10,09,09,58,6.20
2008,10,09,09,59,6.20
2008,10,09,10,00,6.30
2008,10,09,10,01,6.30
2008,10,09,10,02,6.30
2008,10,09,10,03,6.30
2008,10,09,10,04,6.30
2008,10,09,10,05,6.30
2008,10,09,10,06,6.40
2008,10,09,10,07,6.40
2008,10,09,10,08,6.40
2008,10,09,10,09,6.40
2008,10,09,10,10,6.40
2008,10,09,10,11,6.40
2008,10,09,10,13,6.50
2008,10,09,10,14,6.60
2008,10,09,10,15,6.60
2008,10,09,10,16,6.60
2008,10,09,10,17,6.60
2008,10,09,10,18,6.60
2008,10,09,10,19,6.70
2008,10,09,10,20,6.70
2008,10,09,10,21,6.70
2008,10,09,10,22,6.70
2008,10,09,10,23,6.80
2008,10,09,10,24,6.80
2008,10,09,10,25,6.80
2008,10,09,10,26,6.80
2008,10,09,10,27,6.80
2008,10,09,10,28,6.80
2008,10,09,10,29,6.80
2008,10,09,10,30,6.90
2008,10,09,10,31,6.90
2008,10,09,10,32,6.90
2008,10,09,10,33,6.90
2008,10,09,10,34,6.90
2008,10,09,10,35,6.90
2008,10,09,10,36,6.90
2008,10,09,10,37,6.90
2008,10,09,10,38,7.00
2008,10,09,10,39,7.00
2008,10,09,10,40,7.00
2008,10,09,10,41,7.00
2008,10,09,10,42,7.10
2008,10,09,10,43,7.10
2008,10,09,10,44,7.10
2008,10,09,10,45,7.10
2008,10,09,10,46,7.00
2008,10,09,10,47,7.00
2008,10,09,10,48,7.00
2008,10,09,10,49,7.00
2008,10,09,10,50,7.00
2008,10,09,10,51,7.00
2008,10,09,10,52,7.00
2008,10,09,10,53,7.00
2008,10,09,10,54,7.00
2008,10,09,10,55,6.90
2008,10,09,10,56,6.90
2008,10,09,10,57,6.90
2008,10,09,10,59,6.90
2008,10,09,11,00,6.90
2008,10,09,11,01,6.90
2008,10,09,11,02,6.90
2008,10,09,11,03,6.90
2008,10,09,11,04,6.90
2008,10,09,11,05,6.90
2008,10,09,11,06,6.90
2008,10,09,11,07,6.90
2008,10,09,11,08,6.90
2008,10,09,11,09,6.90
2008,10,09,11,10,6.90
2008,10,09,11,11,6.90
2008,10,09,11,12,6.90
2008,10,09,11,13,6.90
2008,10,09,11,14,6.90
2008,10,09,11,15,6.90
2008,10,09,11,16,6.90
2008,10,09,11,17,6.90
2008,10,09,11,18,7.00
2008,10,09,11,19,7.00
2008,10,09,11,20,7.00
2008,10,09,11,21,7.00
2008,10,09,11,22,7.10
2008,10,09,11,23,7.10
2008,10,09,11,24,7.10
2008,10,09,11,25,7.10
2008,10,09,11,26,7.10
2008,10,09,11,27,7.10
2008,10,09,11,28,7.20
2008,10,09,11,29,7.20
2008,10,09,11,30,7.20
2008,10,09,11,31,7.20
2008,10,09,11,32,7.20
2008,10,09,11,33,7.20
2008,10,09,11,34,7.20
2008,10,09,11,35,7.20
2008,10,09,11,36,7.30
2008,10,09,11,37,7.30
2008,10,09,11,38,7.30
2008,10,09,11,39,7.30
2008,10,09,11,40,7.30
2008,10,09,11,41,7.40
2008,10,09,11,42,7.40
2008,10,09,11,43,7.40
2008,10,09,11,44,7.40
2008,10,09,11,45,7.40
2008,10,09,11,46,7.50
2008,10,09,11,47,7.50
2008,10,09,11,48,7.60
2008,10,09,11,49,7.60
2008,10,09,11,50,7.60
2008,10,09,11,51,7.60
2008,10,09,11,52,7.70
2008,10,09,11,53,7.70
2008,10,09,11,54,7.70
2008,10,09,11,55,7.70
2008,10,09,11,56,7.80
2008,10,09,11,57,7.80
2008,10,09,11,58,7.80
2008,10,09,11,59,7.90
2008,10,09,12,00,7.90
2008,10,09,12,01,7.90
2008,10,09,12,02,8.00
2008,10,09,12,03,8.10
2008,10,09,12,04,8.10
2008,10,09,12,05,8.20
2008,10,09,12,06,8.20
2008,10,09,12,07,8.30
2008,10,09,12,08,8.30
2008,10,09,12,09,8.40
2008,10,09,12,10,8.40
2008,10,09,12,11,8.40
2008,10,09,12,12,8.50
2008,10,09,12,13,8.60
2008,10,09,12,14,8.60
2008,10,09,12,15,8.70
2008,10,09,12,16,8.70
2008,10,09,12,17,8.80
2008,10,09,12,18,8.80
2008,10,09,12,19,8.80
2008,10,09,12,20,8.80
2008,10,09,12,21,8.80
2008,10,09,12,22,8.90
2008,10,09,12,23,8.90
2008,10,09,12,24,8.90
2008,10,09,12,25,8.90
2008,10,09,12,26,9.00
2008,10,09,12,27,9.00
2008,10,09,12,28,9.10
2008,10,09,12,29,9.10
2008,10,09,12,30,9.10
2008,10,09,12,31,9.20
2008,10,09,12,32,9.20
2008,10,09,12,33,9.30
2008,10,09,12,34,9.30
2008,10,09,12,35,9.30
2008,10,09,12,36,9.30
2008,10,09,12,37,9.40
2008,10,09,12,38,9.40
2008,10,09,12,39,9.40
2008,10,09,12,40,9.50
2008,10,09,12,41,9.50
2008,10,09,12,42,9.50
2008,10,09,12,43,9.40
2008,10,09,12,44,9.50
2008,10,09,12,45,9.60
2008,10,09,12,46,9.60
2008,10,09,12,47,9.70
2008,10,09,12,48,9.70
2008,10,09,12,49,9.70
2008,10,09,12,50,9.80
2008,10,09,12,51,9.80
2008,10,09,12,52,9.90
2008,10,09,12,53,9.90
2008,10,09,12,54,9.90
2008,10,09,12,55,9.90
2008,10,09,12,56,9.90
2008,10,09,12,57,10.00
2008,10,09,12,58,10.10
2008,10,09,12,59,10.10
2008,10,09,13,00,10.10
2008,10,09,13,01,10.20
2008,10,09,13,02,10.20
2008,10,09,13,03,10.20
2008,10,09,13,04,10.20
2008,10,09,13,05,10.30
2008,10,09,13,06,10.30
2008,10,09,13,07,10.30
2008,10,09,13,08,10.40
2008,10,09,13,09,10.40
2008,10,09,13,10,10.50
2008,10,09,13,11,10.50
2008,10,09,13,12,10.60
2008,10,09,13,13,10.60
2008,10,09,13,14,10.60
2008,10,09,13,15,10.60
2008,10,09,13,16,10.60
2008,10,09,13,17,10.50
2008,10,09,13,18,10.50
2008,10,09,13,19,10.50
2008,10,09,13,20,10.50
2008,10,09,13,21,10.50
2008,10,09,13,22,10.50
2008,10,09,13,23,10.50
2008,10,09,13,24,10.50
2008,10,09,13,25,10.40
2008,10,09,13,26,10.40
2008,10,09,13,27,10.40
2008,10,09,13,28,10.40
2008,10,09,13,29,10.40
2008,10,09,13,30,10.40
2008,10,09,13,31,10.40
2008,10,09,13,32,10.50
2008,10,09,13,33,10.50
2008,10,09,13,34,10.50
2008,10,09,13,35,10.50
2008,10,09,13,36,10.60
2008,10,09,13,37,10.60
2008,10,09,13,38,10.60
2008,10,09,13,39,10.60
2008,10,09,13,40,10.60
2008,10,09,13,41,10.60
2008,10,09,13,42,10.60
2008,10,09,13,43,10.70
2008,10,09,13,44,10.70
2008,10,09,13,45,10.70
2008,10,09,13,46,10.70
2008,10,09,13,47,10.70
2008,10,09,13,48,10.70
2008,10,09,13,49,10.70
2008,10,09,13,50,10.70
2008,10,09,13,51,10.80
2008,10,09,13,52,10.80
2008,10,09,13,53,10.80
2008,10,09,13,54,10.80
2008,10,09,13,55,10.80
2008,10,09,13,56,10.80
2008,10,09,13,57,10.80
2008,10,09,13,58,10.90
2008,10,09,13,59,10.90
2008,10,09,14,00,11.00
2008,10,09,14,01,11.10
2008,10,09,14,02,11.10
2008,10,09,14,03,11.10
2008,10,09,14,04,11.20
2008,10,09,14,05,11.20
2008,10,09,14,06,11.20
2008,10,09,14,07,11.30
2008,10,09,14,08,11.30
2008,10,09,14,09,11.40
2008,10,09,14,10,11.40
2008,10,09,14,11,11.60
2008,10,09,14,12,11.60
2008,10,09,14,13,11.70
2008,10,09,14,14,11.70
2008,10,09,14,15,11.80
2008,10,09,14,16,11.80
2008,10,09,14,17,11.90
2008,10,09,14,18,11.90
2008,10,09,14,19,11.90
2008,10,09,14,20,12.00
2008,10,09,14,21,12.10
2008,10,09,14,22,12.10
2008,10,09,14,23,12.10
2008,10,09,14,24,12.20
2008,10,09,14,25,12.20
2008,10,09,14,26,12.20
2008,10,09,14,27,12.30
2008,10,09,14,28,12.20
2008,10,09,14,29,12.20
2008,10,09,14,30,12.20
2008,10,09,14,31,12.10
2008,10,09,14,32,12.10
2008,10,09,14,33,12.00
2008,10,09,14,34,12.00
2008,10,09,14,35,12.00
2008,10,09,14,36,11.90
2008,10,09,14,37,11.90
2008,10,09,14,38,11.90
2008,10,09,14,39,11.80
2008,10,09,14,40,11.80
2008,10,09,14,41,11.80
2008,10,09,14,42,11.80
2008,10,09,14,43,11.70
2008,10,09,14,44,11.70
2008,10,09,14,45,11.70
2008,10,09,14,46,11.70
2008,10,09,14,48,11.60
2008,10,09,14,49,11.50
2008,10,09,14,50,11.50
2008,10,09,14,51,11.40
2008,10,09,14,52,11.40
2008,10,09,14,53,11.30
2008,10,09,14,54,11.30
2008,10,09,14,55,11.20
2008,10,09,14,56,11.20
2008,10,09,14,57,11.20
2008,10,09,14,58,11.20
2008,10,09,14,59,11.10
2008,10,09,15,00,11.10
2008,10,09,15,01,11.00
2008,10,09,15,02,10.90
2008,10,09,15,03,10.90
2008,10,09,15,04,10.80
2008,10,09,15,05,10.80
2008,10,09,15,06,10.80
2008,10,09,15,07,10.80
2008,10,09,15,08,10.80
2008,10,09,15,09,10.80
2008,10,09,15,10,10.80
2008,10,09,15,11,10.80
2008,10,09,15,12,10.80
2008,10,09,15,13,10.80
2008,10,09,15,14,10.80
2008,10,09,15,15,10.80
2008,10,09,15,16,10.80
2008,10,09,15,17,10.80
2008,10,09,15,18,10.80
2008,10,09,15,19,10.70
2008,10,09,15,20,10.70
2008,10,09,15,21,10.70
2008,10,09,15,22,10.70
2008,10,09,15,23,10.60
2008,10,09,15,24,10.60
2008,10,09,15,25,10.60
2008,10,09,15,26,10.50
2008,10,09,15,27,10.50
2008,10,09,15,28,10.40
2008,10,09,15,29,10.40
2008,10,09,15,30,10.40
2008,10,09,15,31,10.30
2008,10,09,15,32,10.30
2008,10,09,15,33,10.20
2008,10,09,15,34,10.20
2008,10,09,15,35,10.20
2008,10,09,15,36,10.20
2008,10,09,15,37,10.20
2008,10,09,15,38,10.30
2008,10,09,15,39,10.30
2008,10,09,15,40,10.30
2008,10,09,15,41,10.30
2008,10,09,15,42,10.20
2008,10,09,15,43,10.10
2008,10,09,15,44,10.00
2008,10,09,15,45,9.90
2008,10,09,15,46,9.90
2008,10,09,15,47,9.90
2008,10,09,15,48,9.80
2008,10,09,15,49,9.80
2008,10,09,15,50,9.70
2008,10,09,15,51,9.70
2008,10,09,15,52,9.70
2008,10,09,15,53,9.70
2008,10,09,15,54,9.70
2008,10,09,15,55,9.80
2008,10,09,15,56,9.80
2008,10,09,15,57,9.80
2008,10,09,15,58,9.90
2008,10,09,15,59,9.90
2008,10,09,16,00,10.00
2008,10,09,16,01,10.10
2008,10,09,16,02,10.20
2008,10,09,16,03,10.20
2008,10,09,16,04,10.30
2008,10,09,16,05,10.30
2008,10,09,16,06,10.40
2008,10,09,16,07,10.40
2008,10,09,16,08,10.60
2008,10,09,16,09,10.60
2008,10,09,16,10,10.60
2008,10,09,16,11,10.70
2008,10,09,16,12,10.70
2008,10,09,16,13,10.70
2008,10,09,16,14,10.70
2008,10,09,16,15,10.70
2008,10,09,16,16,10.80
2008,10,09,16,17,10.80
2008,10,09,16,18,10.80
2008,10,09,16,19,10.80
2008,10,09,16,20,10.80
2008,10,09,16,21,10.80
2008,10,09,16,22,10.90
2008,10,09,16,23,10.90
2008,10,09,16,24,10.90
2008,10,09,16,25,10.90
2008,10,09,16,26,10.90
2008,10,09,16,27,10.90
2008,10,09,16,28,11.00
2008,10,09,16,29,11.10
2008,10,09,16,30,11.20
2008,10,09,16,31,11.20
2008,10,09,16,32,11.30
2008,10,09,16,33,11.30
2008,10,09,16,34,11.40
2008,10,09,16,35,11.50
2008,10,09,16,36,11.60
2008,10,09,16,37,11.60
2008,10,09,16,38,11.70
2008,10,09,16,39,11.70
2008,10,09,16,40,11.80
2008,10,09,16,41,11.80
2008,10,09,16,42,11.90
2008,10,09,16,43,11.90
2008,10,09,16,44,12.10
2008,10,09,16,45,12.10
2008,10,09,16,46,12.20
2008,10,09,16,47,12.20
2008,10,09,16,48,12.30
2008,10,09,16,49,12.30
2008,10,09,16,50,12.30
2008,10,09,16,51,12.40
2008,10,09,16,52,12.40
2008,10,09,16,53,12.40
2008,10,09,16,54,12.40
2008,10,09,16,55,12.50
2008,10,09,16,56,12.50
2008,10,09,16,57,12.60
2008,10,09,16,58,12.60
2008,10,09,16,59,12.60
2008,10,09,17,00,12.60
2008,10,09,17,01,12.60
2008,10,09,17,02,12.70
2008,10,09,17,03,12.70
2008,10,09,17,04,12.70
2008,10,09,17,05,12.60
2008,10,09,17,06,12.60
2008,10,09,17,07,12.70
2008,10,09,17,08,12.70
2008,10,09,17,09,12.60
2008,10,09,17,10,12.70
2008,10,09,17,11,12.70
2008,10,09,17,12,12.70
2008,10,09,17,13,12.70
2008,10,09,17,14,12.70
2008,10,09,17,15,12.70
2008,10,09,17,16,12.70
2008,10,09,17,17,12.80
2008,10,09,17,18,12.70
2008,10,09,17,19,12.70
2008,10,09,17,20,12.60
2008,10,09,17,21,12.50
2008,10,09,17,22,12.30
2008,10,09,17,23,12.30
2008,10,09,17,24,12.20
2008,10,09,17,25,11.90
2008,10,09,17,26,11.80
2008,10,09,17,27,11.70
2008,10,09,17,28,11.60
2008,10,09,17,29,11.40
2008,10,09,17,30,11.40
2008,10,09,17,31,11.30
2008,10,09,17,32,11.30
2008,10,09,17,33,11.20
2008,10,09,17,34,11.10
2008,10,09,17,35,10.90
2008,10,09,17,36,10.80
2008,10,09,17,37,10.80
2008,10,09,17,38,10.70
2008,10,09,17,39,10.60
2008,10,09,17,40,10.60
2008,10,09,17,41,10.50
2008,10,09,17,42,10.40
2008,10,09,17,43,10.30
2008,10,09,17,44,10.30
2008,10,09,17,45,10.20
2008,10,09,17,46,10.20
2008,10,09,17,47,10.20
2008,10,09,17,48,10.20
2008,10,09,17,49,10.10
2008,10,09,17,50,10.10
2008,10,09,17,51,10.10
2008,10,09,17,52,10.00
2008,10,09,17,53,10.00
2008,10,09,17,54,10.00
2008,10,09,17,55,10.00
2008,10,09,17,56,10.00
2008,10,09,17,57,10.00
2008,10,09,17,58,10.00
2008,10,09,17,59,10.00
2008,10,09,18,00,10.00
2008,10,09,18,01,10.00
2008,10,09,18,02,10.00
2008,10,09,18,03,10.00
2008,10,09,18,04,10.00
2008,10,09,18,05,10.00
2008,10,09,18,06,10.00
2008,10,09,18,07,9.90
2008,10,09,18,08,9.90
2008,10,09,18,09,9.90
2008,10,09,18,10,9.90
2008,10,09,18,11,9.90